| time (UTC) | temp C | wind direction | speed KPH | gust KPH | rain 1hr cm | rain 24hr cm | rain mn cm | humidity % | barometer mb |
| 20260905013104 | 17 | 260 | 16.1 | 0.0 | 0.00 | 0.00 | 0.00 | 59 | 1015.0 |
| 20260905012156 | 17 | 250 | 19.3 | 0.0 | 0.00 | 0.00 | 0.00 | 63 | |
| 20260905010103 | 17 | 260 | 19.3 | 0.0 | 0.00 | 0.00 | 0.00 | 63 | 1015.0 |
| 20260905003102 | 17 | 280 | 19.3 | 0.0 | 0.00 | 0.00 | 0.00 | 63 | 1015.0 |
| 20260905001910 | 18 | 290 | 25.7 | 0.0 | 0.00 | 0.00 | 0.00 | 55 | |
| 20260905000103 | 18 | 290 | 24.1 | 41.8 | 0.00 | 0.00 | 0.00 | 59 | 1015.0 |
| 20260904233103 | 18 | 300 | 20.9 | 0.0 | 0.00 | 0.00 | 0.00 | 68 | 1015.0 |
| 20260904231941 | 17 | 330 | 14.5 | 0.0 | 0.00 | 0.00 | 0.00 | 67 | |
| 20260904223102 | 17 | 20 | 14.5 | 0.0 | 0.00 | 0.00 | 0.00 | 67 | 1013.0 |
| 20260904222328 | 17 | 360 | 11.3 | 0.0 | 0.00 | 0.00 | 0.00 | 67 | |
| 20260904213102 | 18 | 360 | 9.7 | 0.0 | 0.00 | 0.00 | 0.00 | 68 | 1011.0 |
| 20260904211912 | 18 | 360 | 11.3 | 0.0 | 0.00 | 0.00 | 0.00 | 63 | |
| 20260904203102 | 22 | 360 | 14.5 | 0.0 | 0.00 | 0.00 | 0.00 | 60 | 1011.0 |
| 20260904201911 | 23 | 220 | 19.3 | 0.0 | 0.00 | 0.00 | 0.00 | 57 | |
| 20260904193802 | 22 | 230 | 14.5 | 0.0 | 0.00 | 0.00 | 0.00 | 60 | 1011.0 |
| 20260904192157 | 26 | 230 | 14.5 | 0.0 | 0.00 | 0.00 | 0.00 | 47 | |
| 20260904183103 | 25 | 230 | 16.1 | 0.0 | 0.00 | 0.00 | 0.00 | 53 | 1011.0 |
| 20260904181911 | 26 | 220 | 19.3 | 0.0 | 0.00 | 0.00 | 0.00 | 47 | |
| 20260904180103 | 26 | 220 | 19.3 | 0.0 | 0.00 | 0.00 | 0.00 | 50 | 1010.0 |
| 20260904173103 | 27 | 250 | 22.5 | 0.0 | 0.00 | 0.00 | 0.00 | 47 | 1011.0 |
| 20260904171911 | 27 | 250 | 22.5 | 0.0 | 0.00 | 0.00 | 0.00 | 42 | |
| 20260904163103 | 27 | 230 | 25.7 | 0.0 | 0.00 | 0.00 | 0.00 | 45 | 1010.0 |
| 20260904162157 | 27 | 230 | 25.7 | 0.0 | 0.00 | 0.00 | 0.00 | 42 | |
| 20260904153103 | 27 | 230 | 27.4 | 0.0 | 0.00 | 0.00 | 0.00 | 48 | 1011.0 |
| 20260904151929 | 27 | 220 | 32.2 | 0.0 | 0.00 | 0.00 | 0.00 | 45 | |
| 20260904143102 | 27 | 220 | 29.0 | 0.0 | 0.00 | 0.00 | 0.00 | 51 | 1011.0 |
| 20260904141911 | 27 | 240 | 29.0 | 0.0 | 0.00 | 0.00 | 0.00 | 47 | |
| 20260904133102 | 27 | 250 | 29.0 | 0.0 | 0.00 | 0.00 | 0.00 | 51 | 1012.0 |
| 20260904132129 | 27 | 250 | 29.0 | 46.7 | 0.00 | 0.00 | 0.00 | 47 | |
| 20260904130211 | 27 | 250 | 32.2 | 0.0 | 0.00 | 0.00 | 0.00 | 47 | 1013.0 |
| 20260904123102 | 27 | 230 | 29.0 | 48.3 | 0.00 | 0.00 | 0.00 | 51 | 1013.0 |
| 20260904121855 | 25 | 240 | 29.0 | 0.0 | 0.00 | 0.00 | 0.00 | 53 | |
| 20260904120104 | 25 | 250 | 32.2 | 0.0 | 0.00 | 0.00 | 0.00 | 57 | 1014.0 |
| 20260904113102 | 25 | 240 | 27.4 | 0.0 | 0.00 | 0.00 | 0.00 | 57 | 1014.0 |
| 20260904111856 | 25 | 240 | 35.4 | 0.0 | 0.00 | 0.00 | 0.00 | 53 | |
| 20260904103103 | 23 | 240 | 35.4 | 0.0 | 0.00 | 0.00 | 0.00 | 60 | 1015.0 |
| 20260904102312 | 23 | 250 | 35.4 | 0.0 | 0.00 | 0.00 | 0.00 | 57 | |
| 20260904100103 | 23 | 250 | 35.4 | 0.0 | 0.00 | 0.00 | 0.00 | 60 | 1015.0 |
| 20260904093103 | 23 | 220 | 25.7 | 0.0 | 0.00 | 0.00 | 0.00 | 60 | 1016.0 |
| 20260904091912 | 22 | 230 | 29.0 | 0.0 | 0.00 | 0.00 | 0.00 | 60 | |
| 20260904090103 | 22 | 230 | 25.7 | 0.0 | 0.00 | 0.00 | 0.00 | 64 | 1016.0 |
| 20260904083103 | 22 | 230 | 24.1 | 0.0 | 0.00 | 0.00 | 0.00 | 68 | 1016.0 |
| 20260904081911 | 21 | 230 | 19.3 | 0.0 | 0.00 | 0.00 | 0.00 | 68 | |
| 20260904073102 | 20 | 210 | 19.3 | 0.0 | 0.00 | 0.00 | 0.00 | 72 | 1017.0 |
| 20260904072112 | 20 | 220 | 22.5 | 0.0 | 0.00 | 0.00 | 0.00 | 68 | |
| 20260904063102 | 18 | 210 | 20.9 | 0.0 | 0.00 | 0.00 | 0.00 | 72 | 1017.0 |
| 20260904061856 | 17 | 220 | 19.3 | 0.0 | 0.00 | 0.00 | 0.00 | 77 | |
| 20260904060104 | 17 | 220 | 16.1 | 0.0 | 0.00 | 0.00 | 0.00 | 82 | 1017.0 |
| 20260904054302 | 17 | 220 | 20.9 | 0.0 | 0.00 | 0.00 | 0.00 | 77 | 1017.0 |
| 20260904053103 | 17 | 210 | 19.3 | 0.0 | 0.00 | 0.00 | 0.00 | 77 | 1017.0 |
| 20260904051856 | 17 | 210 | 14.5 | 0.0 | 0.00 | 0.00 | 0.00 | 72 | |
| 20260904043102 | 17 | 210 | 14.5 | 0.0 | 0.00 | 0.00 | 0.00 | 82 | 1017.0 |
| 20260904042257 | 17 | 200 | 14.5 | 0.0 | 0.00 | 0.00 | 0.00 | 77 | |
| 20260904040103 | 17 | 200 | 14.5 | 0.0 | 0.00 | 0.00 | 0.00 | 82 | 1017.0 |
| 20260904033102 | 17 | 200 | 14.5 | 0.0 | 0.00 | 0.00 | 0.00 | 82 | 1017.0 |
| 20260904030103 | 17 | 210 | 14.5 | 0.0 | 0.00 | 0.00 | 0.00 | 77 | 1018.0 |
| 20260904023103 | 17 | 210 | 12.9 | 0.0 | 0.00 | 0.00 | 0.00 | 82 | 1018.0 |
| 20260904021856 | 17 | 210 | 14.5 | 0.0 | 0.00 | 0.00 | 0.00 | 77 |